DW8241 Weather Reports


Display with metric or nautical units.
time (UTC)temp
F
wind
direction
speed
MPH
gust
MPH
rain 1hr
in
rain 24hr
in
rain mn
in
humidity
%
barometer
mb
20260508034538 40 332 0.0 3.0 0.00 0.00 0.00 61 1009.0
20260508033025 41 85 0.0 0.0 0.00 0.00 0.00 59 1009.0
20260508031529 42 85 0.0 0.0 0.00 0.00 0.00 56 1009.1
20260508030024 43 85 0.0 0.0 0.00 0.00 0.00 52 1008.9
20260508024547 44 85 0.0 1.0 0.00 0.00 0.00 50 1008.9
20260508023023 45 349 0.0 0.0 0.00 0.00 0.00 53 1008.8
20260508021523 47 349 0.0 0.0 0.00 0.00 0.00 47 1008.7
20260508020022 50 355 0.0 1.0 0.00 0.00 0.00 44 1008.6
20260508014524 52 352 0.0 2.0 0.00 0.00 0.00 40 1008.4
20260508013022 55 22 0.0 2.0 0.00 0.00 0.00 37 1008.3
20260508011526 57 14 1.0 4.0 0.00 0.00 0.00 35 1008.2
20260508010021 57 342 3.0 7.0 0.00 0.00 0.00 34 1008.2
20260508004536 58 32 2.0 8.0 0.00 0.00 0.00 34 1008.2
20260508003019 58 348 4.0 11.0 0.00 0.00 0.00 33 1008.3
20260508001530 59 4 6.0 13.0 0.00 0.00 0.00 34 1008.3
20260508000017 59 345 8.0 13.0 0.00 0.00 0.00 32 1008.4
20260507234517 59 316 5.0 12.0 0.00 0.00 0.00 32 1008.4
20260507233015 59 293 4.0 10.0 0.00 0.00 0.00 34 1008.4
20260507231513 59 295 5.0 16.0 0.00 0.00 0.00 34 1008.5
20260507230114 58 321 3.0 13.0 0.00 0.00 0.00 34 1008.5
20260507224513 58 9 7.0 13.0 0.00 0.00 0.00 35 1008.6
20260507223011 58 323 7.0 13.0 0.00 0.00 0.00 35 1008.6
20260507221510 58 338 7.0 12.0 0.00 0.00 0.00 36 1008.8
20260507220008 58 324 7.0 17.0 0.00 0.00 0.00 35 1008.8
20260507214505 58 287 4.0 16.0 0.00 0.00 0.00 35 1009.1
20260507213003 57 342 8.0 17.0 0.00 0.00 0.00 35 1009.2
20260507211502 58 290 8.0 16.0 0.00 0.00 0.00 36 1009.3
20260507210111 58 328 9.0 17.0 0.00 0.00 0.00 34 1009.4
20260507204601 58 340 8.0 19.0 0.00 0.00 0.00 33 1009.6
20260507203122 57 311 9.0 19.0 0.00 0.00 0.00 36 1009.7
20260507201554 57 352 7.0 15.0 0.00 0.00 0.00 36 1009.8
20260507200052 56 346 11.0 17.0 0.00 0.00 0.00 37 1010.1
20260507194601 56 279 7.0 16.0 0.00 0.00 0.00 37 1010.2
20260507193046 56 28 7.0 13.0 0.00 0.00 0.00 40 1010.5
20260507191547 55 34 5.0 13.0 0.00 0.00 0.00 42 1010.4
20260507190051 54 296 6.0 16.0 0.00 0.00 0.00 41 1010.6
20260507184540 54 321 2.0 23.0 0.00 0.00 0.00 44 1010.6
20260507183039 54 306 8.0 15.0 0.00 0.00 0.00 41 1010.7
20260507181539 53 313 0.0 17.0 0.00 0.00 0.00 44 1010.9
20260507180039 53 303 7.0 15.0 0.00 0.00 0.00 41 1011.1
20260507174540 52 336 0.0 12.0 0.00 0.00 0.00 42 1011.3
20260507173050 52 343 0.0 13.0 0.00 0.00 0.00 45 1011.7
20260507171528 52 296 1.0 11.0 0.00 0.00 0.00 45 1011.8
20260507170024 51 359 4.0 8.0 0.00 0.00 0.00 46 1011.9
20260507164520 50 305 0.0 10.0 0.00 0.00 0.00 47 1012.1
20260507163017 49 323 0.0 0.0 0.00 0.00 0.00 47 1012.3
20260507161517 48 10 0.0 0.0 0.00 0.00 0.00 52 1012.5
20260507160011 47 13 0.0 0.0 0.00 0.00 0.00 57 1012.5
20260507154509 46 27 0.0 0.0 0.00 0.00 0.00 55 1012.6
20260507153007 46 25 0.0 0.0 0.00 0.00 0.00 54 1012.5
20260507151504 45 350 0.0 0.0 0.00 0.00 0.00 59 1012.6
20260507150100 44 351 0.0 0.0 0.00 0.00 0.00 61 1012.6
20260507144608 42 31 0.0 0.0 0.00 0.00 0.00 65 1012.6
20260507143100 41 328 0.0 0.0 0.00 0.00 0.00 66 1012.7
20260507141558 40 31 0.0 0.0 0.00 0.00 0.00 68 1012.7
20260507140046 38 25 0.0 0.0 0.00 0.00 0.00 69 1012.7
20260507134546 37 358 0.0 0.0 0.00 0.00 0.00 71 1012.6
20260507133107 36 355 0.0 0.0 0.00 0.00 0.00 73 1012.6
20260507131540 34 338 0.0 6.0 0.00 0.00 0.00 75 1012.6
20260507130035 33 296 0.0 0.0 0.00 0.00 0.00 74 1012.5
20260507124529 33 332 0.0 0.0 0.00 0.00 0.00 78 1012.5
20260507123035 31 323 0.0 0.0 0.00 0.00 0.00 79 1012.5
20260507121524 31 300 0.0 0.0 0.00 0.00 0.00 79 1012.5
20260507120024 29 315 0.0 0.0 0.00 0.00 0.00 80 1012.4
20260507114522 28 300 0.0 0.0 0.00 0.00 0.00 81 1012.2
20260507113023 26 282 0.0 0.0 0.00 0.00 0.00 82 1012.2
20260507111520 26 282 0.0 0.0 0.00 0.00 0.00 81 1012.2
20260507110020 26 252 0.0 0.0 0.00 0.00 0.00 81 1012.0
20260507104519 25 23 0.0 0.0 0.00 0.00 0.00 83 1012.1
20260507103019 25 23 0.0 0.0 0.00 0.00 0.00 83 1012.2
20260507101524 25 23 0.0 0.0 0.00 0.00 0.00 83 1012.1
20260507100020 26 23 0.0 0.0 0.00 0.00 0.00 80 1012.0
20260507094512 28 318 0.0 0.0 0.00 0.00 0.00 80 1012.0
20260507093012 27 256 0.0 0.0 0.00 0.00 0.00 80 1012.0
20260507091513 26 236 0.0 0.0 0.00 0.00 0.00 82 1012.2
20260507090011 27 231 0.0 0.0 0.00 0.00 0.00 80 1012.1
20260507084507 27 238 0.0 0.0 0.00 0.00 0.00 79 1012.2
20260507083006 28 159 0.0 0.0 0.00 0.00 0.00 79 1012.2
20260507081505 28 159 0.0 0.0 0.00 0.00 0.00 80 1012.3
20260507080004 27 159 0.0 0.0 0.00 0.00 0.00 81 1012.2
20260507074503 26 159 0.0 0.0 0.00 0.00 0.00 83 1012.2
20260507073109 26 159 0.0 0.0 0.00 0.00 0.00 82 1012.4
20260507073001 26 159 0.0 0.0 0.00 0.00 0.00 82 1012.4
20260507071558 26 159 0.0 0.0 0.00 0.00 0.00 83 1012.5
20260507070104 26 159 0.0 0.0 0.00 0.00 0.00 83 1012.4
20260507064558 26 159 0.0 0.0 0.00 0.00 0.00 83 1012.5
20260507063054 27 159 0.0 0.0 0.00 0.00 0.00 82 1012.6
20260507061554 27 159 0.0 0.0 0.00 0.00 0.00 83 1012.6
20260507060054 26 159 0.0 0.0 0.00 0.00 0.00 82 1012.6
20260507054549 27 159 0.0 0.0 0.00 0.00 0.00 80 1012.7
20260507053046 29 159 0.0 0.0 0.00 0.00 0.00 79 1012.8
20260507051544 29 165 0.0 0.0 0.00 0.00 0.00 78 1012.9
20260507050038 31 164 0.0 0.0 0.00 0.00 0.00 75 1013.1
20260507044548 33 164 0.0 0.0 0.00 0.00 0.00 72 1013.2
20260507043035 33 152 0.0 0.0 0.00 0.00 0.00 74 1013.3
20260507041534 31 216 0.0 0.0 0.00 0.00 0.00 75 1013.4
20260507040041 31 55 0.0 0.0 0.00 0.00 0.00 78 1013.6